AMX4961 MMGL-MMMX

Flight info

Callsign AMX4961
Flight time 0h 50m
Altitude 35000
Route EMIRI1B EMIRI UT119 ESPOS ESPOS3A
Aircraft B738/M-SDE2E3FGHIRWXY/LB1

Departure

Time 2026-05-06 03:09
Airport Guadalajara International Airport (MMGL)

Arrival

Time 2026-05-06 03:59
Airport Mexico City Benito Juárez International Airport (MMMX)
Time Latitude Longitude Altitude Speed Heading
2026-05-06 02:47 20.52503 -103.30296 5028 ft 0 kts 19°
2026-05-06 02:58 20.52478 -103.30307 5028 ft 4 kts 29°
2026-05-06 02:58 20.52463 -103.30317 5025 ft 4 kts 41°
2026-05-06 02:58 20.52448 -103.30338 5028 ft 4 kts 82°
2026-05-06 02:59 20.52448 -103.30350 5027 ft 0 kts 109°
2026-05-06 03:02 20.52440 -103.30323 5005 ft 10 kts 104°
2026-05-06 03:03 20.52411 -103.30242 5028 ft 12 kts 118°
2026-05-06 03:03 20.52337 -103.30231 5028 ft 12 kts 198°
2026-05-06 03:03 20.52267 -103.30244 5028 ft 6 kts 151°
2026-05-06 03:03 20.52244 -103.30210 5026 ft 6 kts 119°
2026-05-06 03:04 20.52224 -103.30168 5028 ft 7 kts 114°
2026-05-06 03:04 20.52200 -103.30108 5028 ft 11 kts 113°
2026-05-06 03:04 20.52164 -103.30021 5028 ft 15 kts 118°
2026-05-06 03:04 20.52123 -103.29931 5028 ft 12 kts 115°
2026-05-06 03:05 20.52096 -103.29854 5028 ft 10 kts 109°
2026-05-06 03:05 20.52070 -103.29789 5026 ft 9 kts 115°
2026-05-06 03:05 20.52045 -103.29735 5028 ft 7 kts 115°
2026-05-06 03:05 20.52025 -103.29690 5028 ft 6 kts 115°
2026-05-06 03:06 20.52013 -103.29661 5028 ft 2 kts 114°
2026-05-06 03:06 20.51979 -103.29584 5029 ft 17 kts 118°
2026-05-06 03:06 20.51888 -103.29548 5029 ft 15 kts 206°
2026-05-06 03:06 20.51824 -103.29607 5029 ft 8 kts 270°
2026-05-06 03:07 20.51841 -103.29662 5027 ft 8 kts 292°
2026-05-06 03:07 20.51845 -103.29671 5029 ft 0 kts 294°
2026-05-06 03:08 20.51846 -103.29673 5029 ft 4 kts 295°
2026-05-06 03:08 20.51903 -103.29811 5028 ft 37 kts 295°
2026-05-06 03:08 20.52114 -103.30316 5023 ft 113 kts 294°
2026-05-06 03:09 20.52533 -103.31307 5055 ft 175 kts 293°
2026-05-06 03:09 20.53097 -103.32464 6022 ft 172 kts 299°
2026-05-06 03:09 20.53664 -103.33547 7026 ft 162 kts 301°
2026-05-06 03:09 20.54319 -103.34551 7738 ft 176 kts 298°
2026-05-06 03:10 20.54726 -103.35873 8028 ft 200 kts 284°
2026-05-06 03:10 20.55165 -103.37382 8231 ft 223 kts 289°
2026-05-06 03:10 20.55718 -103.39004 8530 ft 239 kts 290°
2026-05-06 03:10 20.56338 -103.40672 9046 ft 245 kts 292°
2026-05-06 03:11 20.57002 -103.42377 9656 ft 250 kts 292°
2026-05-06 03:11 20.57676 -103.44075 10516 ft 248 kts 291°
2026-05-06 03:11 20.58364 -103.45796 11168 ft 256 kts 290°
2026-05-06 03:11 20.58958 -103.47630 11649 ft 270 kts 275°
2026-05-06 03:12 20.58716 -103.49669 11832 ft 292 kts 244°
2026-05-06 03:12 20.57422 -103.51405 11992 ft 313 kts 213°
2026-05-06 03:12 20.55345 -103.52249 12261 ft 333 kts 186°
2026-05-06 03:12 20.52982 -103.51995 12483 ft 352 kts 168°
2026-05-06 03:13 20.50531 -103.51544 12925 ft 362 kts 175°
2026-05-06 03:13 20.48014 -103.51685 13580 ft 366 kts 193°
2026-05-06 03:13 20.45721 -103.52848 14266 ft 368 kts 212°
2026-05-06 03:13 20.43537 -103.54269 14823 ft 370 kts 201°
2026-05-06 03:14 20.41023 -103.54827 15334 ft 372 kts 180°
2026-05-06 03:14 20.38467 -103.54419 15911 ft 375 kts 162°
2026-05-06 03:14 20.36133 -103.53153 16466 ft 381 kts 145°
2026-05-06 03:14 20.34241 -103.51158 17012 ft 388 kts 128°
2026-05-06 03:15 20.32759 -103.48742 17557 ft 392 kts 124°
2026-05-06 03:15 20.31353 -103.46234 18079 ft 396 kts 123°
2026-05-06 03:15 20.29963 -103.43684 18549 ft 400 kts 122°
2026-05-06 03:15 20.28560 -103.41111 19059 ft 402 kts 123°
2026-05-06 03:16 20.27147 -103.38542 19576 ft 403 kts 123°
2026-05-06 03:16 20.25720 -103.35972 20074 ft 404 kts 123°
2026-05-06 03:16 20.24277 -103.33395 20538 ft 406 kts 124°
2026-05-06 03:16 20.22821 -103.30807 21004 ft 408 kts 124°
2026-05-06 03:17 20.21356 -103.28213 21459 ft 410 kts 124°
2026-05-06 03:17 20.19883 -103.25609 21913 ft 412 kts 124°
2026-05-06 03:17 20.18401 -103.22993 22358 ft 413 kts 124°
2026-05-06 03:17 20.16914 -103.20368 22779 ft 415 kts 124°
2026-05-06 03:18 20.15417 -103.17727 23191 ft 418 kts 124°
2026-05-06 03:18 20.13913 -103.15075 23596 ft 420 kts 124°
2026-05-06 03:18 20.12400 -103.12408 23910 ft 423 kts 124°
2026-05-06 03:18 20.10874 -103.09718 24201 ft 426 kts 124°
2026-05-06 03:19 20.09358 -103.07048 24484 ft 429 kts 124°
2026-05-06 03:19 20.07812 -103.04326 24789 ft 432 kts 124°
2026-05-06 03:19 20.06253 -103.01580 25080 ft 435 kts 124°
2026-05-06 03:19 20.04684 -102.98821 25361 ft 438 kts 124°
2026-05-06 03:20 20.01513 -102.93245 25916 ft 443 kts 124°
2026-05-06 03:20 19.99913 -102.90435 26202 ft 446 kts 124°
2026-05-06 03:20 19.98303 -102.87606 26460 ft 449 kts 124°
2026-05-06 03:21 19.96682 -102.84761 26702 ft 452 kts 124°
2026-05-06 03:21 19.95050 -102.81897 26993 ft 454 kts 124°
2026-05-06 03:21 19.93412 -102.79026 27267 ft 456 kts 124°
2026-05-06 03:21 19.91762 -102.76134 27533 ft 458 kts 124°
2026-05-06 03:22 19.90105 -102.73231 27784 ft 461 kts 124°
2026-05-06 03:22 19.88436 -102.70308 28028 ft 464 kts 124°
2026-05-06 03:22 19.86760 -102.67375 28291 ft 466 kts 124°
2026-05-06 03:22 19.85074 -102.64424 28535 ft 468 kts 124°
2026-05-06 03:23 19.83378 -102.61458 28765 ft 470 kts 124°
2026-05-06 03:23 19.81679 -102.58488 28983 ft 473 kts 124°
2026-05-06 03:23 19.80071 -102.55424 29203 ft 477 kts 117°
2026-05-06 03:23 19.78761 -102.52175 29426 ft 480 kts 115°
2026-05-06 03:24 19.77513 -102.48876 29641 ft 483 kts 114°
2026-05-06 03:24 19.76278 -102.45552 29849 ft 485 kts 114°
2026-05-06 03:24 19.75038 -102.42220 30096 ft 486 kts 114°
2026-05-06 03:24 19.73790 -102.38898 30368 ft 485 kts 114°
2026-05-06 03:25 19.72529 -102.35575 30673 ft 484 kts 114°
2026-05-06 03:25 19.71262 -102.32260 30957 ft 484 kts 114°
2026-05-06 03:25 19.69990 -102.28951 31215 ft 485 kts 114°
2026-05-06 03:25 19.68714 -102.25640 31486 ft 485 kts 114°
2026-05-06 03:26 19.67438 -102.22332 31771 ft 484 kts 114°
2026-05-06 03:26 19.66163 -102.19027 32064 ft 484 kts 114°
2026-05-06 03:26 19.64886 -102.15719 32338 ft 484 kts 114°
2026-05-06 03:26 19.63610 -102.12415 32621 ft 485 kts 114°
2026-05-06 03:27 19.62333 -102.09108 32919 ft 485 kts 114°
2026-05-06 03:27 19.61055 -102.05799 33213 ft 484 kts 114°
2026-05-06 03:27 19.59776 -102.02492 33494 ft 485 kts 114°
2026-05-06 03:27 19.58514 -101.99229 33778 ft 485 kts 114°
2026-05-06 03:28 19.57234 -101.95923 34069 ft 484 kts 114°
2026-05-06 03:28 19.55957 -101.92626 34346 ft 483 kts 114°
2026-05-06 03:28 19.54683 -101.89339 34660 ft 481 kts 114°
2026-05-06 03:28 19.53414 -101.86066 34968 ft 480 kts 114°
2026-05-06 03:29 19.50857 -101.79482 35004 ft 484 kts 114°
2026-05-06 03:29 19.48305 -101.72915 34995 ft 479 kts 114°
2026-05-06 03:30 19.45772 -101.66403 35003 ft 477 kts 114°
2026-05-06 03:30 19.43243 -101.59913 34999 ft 476 kts 114°
2026-05-06 03:31 19.40718 -101.53440 34993 ft 475 kts 114°
2026-05-06 03:31 19.38191 -101.46969 34985 ft 475 kts 114°
2026-05-06 03:32 19.35660 -101.40494 34971 ft 476 kts 114°
2026-05-06 03:32 19.33124 -101.34011 34970 ft 477 kts 114°
2026-05-06 03:33 19.30582 -101.27521 34950 ft 478 kts 114°
2026-05-06 03:33 19.28031 -101.21012 34926 ft 479 kts 114°
2026-05-06 03:34 19.25473 -101.14493 34919 ft 480 kts 114°
2026-05-06 03:34 19.22908 -101.07966 34911 ft 481 kts 114°
2026-05-06 03:35 19.20337 -101.01432 34887 ft 481 kts 114°
2026-05-06 03:35 19.17782 -100.94945 34882 ft 481 kts 114°
2026-05-06 03:36 19.15209 -100.88420 34874 ft 480 kts 114°
2026-05-06 03:36 19.12634 -100.81900 34863 ft 481 kts 114°
2026-05-06 03:37 19.10056 -100.75378 34856 ft 480 kts 114°
2026-05-06 03:37 19.07478 -100.68864 34845 ft 480 kts 114°
2026-05-06 03:38 19.04901 -100.62360 34860 ft 480 kts 114°
2026-05-06 03:38 19.02320 -100.55856 34862 ft 479 kts 114°
2026-05-06 03:39 18.99765 -100.49421 34855 ft 465 kts 114°
2026-05-06 03:39 18.97294 -100.43204 34877 ft 457 kts 114°
2026-05-06 03:40 18.94835 -100.37030 34888 ft 456 kts 114°
2026-05-06 03:40 18.92375 -100.30857 34904 ft 455 kts 114°
2026-05-06 03:41 18.89917 -100.24697 34923 ft 455 kts 114°
2026-05-06 03:41 18.87457 -100.18537 34932 ft 456 kts 114°
2026-05-06 03:42 18.84993 -100.12374 34945 ft 456 kts 114°
2026-05-06 03:42 18.82523 -100.06199 34952 ft 457 kts 114°
2026-05-06 03:43 18.80050 -100.00023 34946 ft 457 kts 114°
2026-05-06 03:43 18.78793 -99.96888 34110 ft 469 kts 114°
2026-05-06 03:43 18.77525 -99.93726 33136 ft 467 kts 115°
2026-05-06 03:44 18.76262 -99.90574 32151 ft 465 kts 115°
2026-05-06 03:44 18.75009 -99.87449 31206 ft 461 kts 114°
2026-05-06 03:44 18.74163 -99.84194 30250 ft 462 kts 97°
2026-05-06 03:44 18.74212 -99.80816 29260 ft 461 kts 83°
2026-05-06 03:45 18.75101 -99.77581 28246 ft 460 kts 69°
2026-05-06 03:45 18.76393 -99.74525 27439 ft 452 kts 67°
2026-05-06 03:45 18.77730 -99.71504 26825 ft 461 kts 66°
2026-05-06 03:45 18.79102 -99.68409 26209 ft 468 kts 66°
2026-05-06 03:46 18.80463 -99.65296 25596 ft 464 kts 67°
2026-05-06 03:46 18.81789 -99.62222 25001 ft 456 kts 67°
2026-05-06 03:46 18.83078 -99.59197 24392 ft 447 kts 67°
2026-05-06 03:46 18.84326 -99.56249 23769 ft 434 kts 68°
2026-05-06 03:47 18.85538 -99.53378 23096 ft 422 kts 67°
2026-05-06 03:47 18.86322 -99.51521 22623 ft 415 kts 68°
2026-05-06 03:47 18.87482 -99.48771 21919 ft 406 kts 67°
2026-05-06 03:47 18.88615 -99.46084 21232 ft 397 kts 67°
2026-05-06 03:48 18.89727 -99.43447 20561 ft 389 kts 67°
2026-05-06 03:48 18.90817 -99.40864 19922 ft 381 kts 67°
2026-05-06 03:48 18.91883 -99.38339 19415 ft 371 kts 67°
2026-05-06 03:48 18.92918 -99.35884 18914 ft 362 kts 67°
2026-05-06 03:49 18.93930 -99.33486 18428 ft 354 kts 67°
2026-05-06 03:49 18.94915 -99.31152 18140 ft 339 kts 67°
2026-05-06 03:49 18.95796 -99.28907 17879 ft 324 kts 71°
2026-05-06 03:49 18.96826 -99.26845 17594 ft 314 kts 53°
2026-05-06 03:50 18.98232 -99.25143 17378 ft 302 kts 49°
2026-05-06 03:50 18.99632 -99.23542 17145 ft 291 kts 49°
2026-05-06 03:50 19.00957 -99.22008 16911 ft 281 kts 49°
2026-05-06 03:50 19.02234 -99.20494 16690 ft 272 kts 50°
2026-05-06 03:51 19.03465 -99.19007 16450 ft 264 kts 50°
2026-05-06 03:51 19.04653 -99.17552 16240 ft 260 kts 51°
2026-05-06 03:51 19.05823 -99.16110 16023 ft 258 kts 51°
2026-05-06 03:51 19.06995 -99.14657 15824 ft 261 kts 51°
2026-05-06 03:52 19.08174 -99.13190 15628 ft 263 kts 51°
2026-05-06 03:52 19.09368 -99.11702 15446 ft 267 kts 51°
2026-05-06 03:52 19.10572 -99.10202 15260 ft 267 kts 51°
2026-05-06 03:52 19.11779 -99.08696 15057 ft 271 kts 51°
2026-05-06 03:53 19.13023 -99.07142 14866 ft 282 kts 51°
2026-05-06 03:53 19.14301 -99.05545 14661 ft 286 kts 51°
2026-05-06 03:53 19.15724 -99.04084 14437 ft 287 kts 32°
2026-05-06 03:53 19.17580 -99.03371 14198 ft 287 kts
2026-05-06 03:54 19.19538 -99.03567 13907 ft 290 kts 342°
2026-05-06 03:54 19.21302 -99.04603 13566 ft 293 kts 321°
2026-05-06 03:54 19.22805 -99.06061 13242 ft 293 kts 317°
2026-05-06 03:54 19.24287 -99.07593 12894 ft 295 kts 313°
2026-05-06 03:55 19.25567 -99.09252 12559 ft 296 kts 307°
2026-05-06 03:55 19.26784 -99.11011 12221 ft 297 kts 307°
2026-05-06 03:55 19.28008 -99.12775 11878 ft 298 kts 307°
2026-05-06 03:55 19.29251 -99.14528 11533 ft 299 kts 307°
2026-05-06 03:56 19.30508 -99.16281 11175 ft 300 kts 308°
2026-05-06 03:56 19.31783 -99.18036 10814 ft 301 kts 310°
2026-05-06 03:56 19.33395 -99.19403 10445 ft 300 kts 339°
2026-05-06 03:56 19.35406 -99.19653 10113 ft 289 kts 12°
2026-05-06 03:57 19.37140 -99.18774 9683 ft 272 kts 43°
2026-05-06 03:57 19.38138 -99.17160 9387 ft 255 kts 65°
2026-05-06 03:57 19.38872 -99.15503 9152 ft 242 kts 62°
2026-05-06 03:57 19.39690 -99.13996 8913 ft 229 kts 58°
2026-05-06 03:58 19.40480 -99.12599 8606 ft 214 kts 59°
2026-05-06 03:58 19.41211 -99.11285 8246 ft 200 kts 59°
2026-05-06 03:58 19.41957 -99.10095 7890 ft 190 kts 48°
2026-05-06 03:58 19.42754 -99.09030 7609 ft 175 kts 68°
2026-05-06 03:59 19.43334 -99.08016 7463 ft 149 kts 58°
2026-05-06 03:59 19.43807 -99.07181 7451 ft 111 kts 59°
2026-05-06 03:59 19.44128 -99.06615 7454 ft 68 kts 59°
2026-05-06 03:59 19.44264 -99.06345 7453 ft 19 kts 108°
2026-05-06 04:00 19.44189 -99.06349 7453 ft 10 kts 206°
2026-05-06 04:00 19.44141 -99.06375 7455 ft 5 kts 207°
2026-05-06 04:00 19.44123 -99.06385 7455 ft 0 kts 208°
2026-05-06 04:00 19.44109 -99.06393 7458 ft 6 kts 208°
2026-05-06 04:01 19.44063 -99.06420 7458 ft 9 kts 208°
2026-05-06 04:01 19.43980 -99.06464 7455 ft 22 kts 206°
2026-05-06 04:01 19.43800 -99.06560 7450 ft 31 kts 210°
2026-05-06 04:01 19.43645 -99.06650 7463 ft 19 kts 207°
2026-05-06 04:02 19.43544 -99.06704 7468 ft 14 kts 207°
2026-05-06 04:02 19.43463 -99.06750 7470 ft 13 kts 208°
2026-05-06 04:02 19.43383 -99.06793 7471 ft 13 kts 207°
2026-05-06 04:02 19.43315 -99.06851 7473 ft 14 kts 232°
2026-05-06 04:03 19.43256 -99.06948 7472 ft 16 kts 239°
2026-05-06 04:03 19.43205 -99.07049 7473 ft 15 kts 251°
2026-05-06 04:03 19.43175 -99.07156 7471 ft 15 kts 247°
2026-05-06 04:03 19.43123 -99.07248 7471 ft 14 kts 238°
2026-05-06 04:04 19.43076 -99.07337 7468 ft 14 kts 239°
2026-05-06 04:04 19.43030 -99.07422 7466 ft 13 kts 239°
2026-05-06 04:04 19.42980 -99.07501 7466 ft 13 kts 236°
2026-05-06 04:04 19.42937 -99.07582 7468 ft 12 kts 241°
2026-05-06 04:05 19.42895 -99.07660 7473 ft 12 kts 240°
2026-05-06 04:05 19.42855 -99.07737 7472 ft 12 kts 243°
2026-05-06 04:05 19.42816 -99.07810 7472 ft 11 kts 239°
2026-05-06 04:05 19.42770 -99.07876 7471 ft 11 kts 210°
2026-05-06 04:06 19.42698 -99.07875 7477 ft 11 kts 213°
2026-05-06 04:06 19.42645 -99.07948 7471 ft 14 kts 231°
2026-05-06 04:06 19.42586 -99.07958 7472 ft 8 kts 149°
2026-05-06 04:06 19.42534 -99.07956 7472 ft 5 kts 210°
2026-05-06 04:07 19.42496 -99.08031 7476 ft 20 kts 242°
2026-05-06 04:07 19.42403 -99.08027 7476 ft 12 kts 148°
2026-05-06 04:07 19.42333 -99.07980 7478 ft 13 kts 178°
2026-05-06 04:07 19.42287 -99.08003 7479 ft 3 kts 210°
2026-05-06 04:08 19.42279 -99.08008 7480 ft 0 kts 208°